Location: Croisilles
(50.1998°N, 2.8793°E)
Time: 19:59:01
(UTC+00:00)

SMAP - Pass Details

Date: 21 January 2021
Orbit: 681 x 683 km, 98.1° (Epoch: 01 March)

Event Time Altitude Azimuth Distance (km) Brightness Sun altitude
Rises 17:12:24 0° 169° (S) 3,033 6.6 -7.8°
Reaches altitude 10° 17:14:38 10° 172° (S) 2,123 5.8 -8.1°
Maximum altitude 17:19:16 73° 257° (WSW) 720 3.4 -8.8°
Drops below altitude 10° 17:23:57 10° 342° (NNW) 2,139 5.6 -9.5°
Sets 17:26:13 0° 345° (NNW) 3,059 6.4 -9.9°
